Location: Platte
(43.3870°N, 98.8440°W)
Time: 00:28:38
(UTC-05:00)

Daily predictions for brighter satellites

Satellite Brightness Start Highest point End
(mag) Time Altitude Azimuth Time Altitude Azimuth Time Altitude Azimuth
ATLAS 5 CENTAUR R/B 4.4 00:02:54 10° WNW 00:06:15 18° NNW 00:09:48 10° NNE
ATLAS 3B R/B 4.3 02:13:16 31° N 02:13:16 31° N 02:17:41 10° NNE
SL-16 R/B 4.5 03:04:10 18° ENE 03:04:10 18° ENE 03:06:01 10° NE
Resurs 1-4 Rocket 4.5 03:06:20 10° NE 03:08:11 18° ENE 03:08:11 18° ENE
CZ-2D R/B 4.4 03:08:23 10° NE 03:10:47 20° ENE 03:10:47 20° ENE
FALCON 9 R/B 4.5 03:17:40 52° SE 03:17:40 52° SE 03:42:26 10° ESE
Cosmos 2360 Rocket 4.5 03:27:51 16° E 03:27:51 16° E 03:30:25 10° ENE
Cosmos 1980 Rocket 4.0 03:30:15 28° NNE 03:30:15 28° NNE 03:32:50 10° NNE
ADEOS Rocket 4.4 03:33:35 10° NNE 03:37:11 29° ENE 03:37:11 29° ENE
Cosmos 2263 Rocket 4.1 03:35:47 10° NNW 03:38:03 24° N 03:38:03 24° N
CENTAUR R/B 3.3 03:43:40 49° NNE 03:43:40 49° NNE 03:48:42 10° NE
USA 215 4.3 03:46:28 10° E 03:52:30 41° NNE 03:58:32 10° NW
Cosmos 2315 Rocket 4.4 04:06:01 61° NE 04:06:01 61° NE 04:11:14 10° NNE
SL-16 R/B 3.4 04:18:29 38° NNW 04:18:29 38° NNW 04:22:13 10° NNW
ARIANE 5 R/B 3.6 04:11:10 10° NNE 04:14:22 40° NNE 04:14:22 40° NNE
Cosmos 2074 Rocket 4.4 04:26:44 10° N 04:32:55 59° E 04:35:49 32° SE
Cosmos 2322 Rocket 2.8 04:40:45 44° NNW 04:40:45 44° NNW 04:45:10 10° NNE
Cosmos 1975 4.3 04:39:51 10° N 04:42:58 36° NE 04:42:58 36° NE
SL-16 R/B 2.8 04:46:02 44° NNW 04:46:02 44° NNW 04:50:40 10° NNE
Cosmos 1777 Rocket 4.2 04:42:31 10° NNW 04:46:58 63° N 04:46:58 63° N
SL-8 R/B 4.5 04:48:52 45° N 04:48:54 45° N 04:53:31 10° ENE
Resurs 1-4 Rocket 2.9 04:45:33 10° N 04:49:17 38° NNW 04:49:17 38° NNW
Okean O Rocket 3.2 04:48:27 10° NNE 04:52:28 32° E 04:54:01 25° SE
Cosmos 2219 Rocket 4.3 04:48:34 10° SSE 04:52:44 22° E 04:56:54 10° NE
CZ-2D R/B 2.9 04:47:55 10° N 04:52:07 41° NW 04:52:07 41° NW
COSMOS 2428 3.8 04:51:56 28° SSE 04:54:09 40° ESE 04:59:26 10° NE
Cosmos 1844 Rocket 3.8 04:53:10 10° NNW 04:58:30 43° ENE 05:03:47 10° SE
Lacrosse 4 Rocket 4.0 05:03:25 11° SE 05:03:25 11° SE 05:03:33 10° SE
DELTA 2 R/B (1) 4.1 05:02:43 44° SSE 05:02:43 44° SSE 05:07:55 10° E
Cosmos 1455 Rocket 3.2 04:59:45 10° N 05:03:47 72° NNE 05:03:47 72° NNE
Cosmos 2184 Rocket 3.8 05:03:23 10° N 05:09:36 77° W 05:12:43 32° S
Cosmos 2360 Rocket 2.1 05:09:38 64° WSW 05:10:16 71° WNW 05:15:56 10° NNE
Cosmos 1975 Rocket 4.5 05:13:10 26° NNW 05:13:10 26° NNW 05:15:28 10° N
Cosmos 1980 Rocket 4.2 05:12:01 14° NW 05:12:16 14° NW 05:15:05 10° NNW
Cosmos 1812 4.2 05:15:11 28° NNW 05:15:11 28° NNW 05:17:15 10° N
Cosmos 2278 Rocket 4.3 05:09:00 10° N 05:13:49 27° NE 05:18:35 10° ESE
ADEOS II 2.9 05:09:24 10° NNE 05:14:30 48° E 05:18:42 15° S
Gblst 52 Del rocket 4.1 05:14:40 38° WNW 05:16:59 85° SW 05:23:15 10° SE
Cosmos 1340 3.0 05:19:10 58° N 05:19:10 58° N 05:22:19 10° N
Cosmos 2237 Rocket 4.4 05:16:23 10° SSE 05:20:39 22° E 05:24:56 10° NE
ADEOS Rocket 3.5 05:19:10 10° N 05:24:06 34° WNW 05:24:09 34° WNW
ATLAS 5 CENTAUR R/B 3.6 05:21:22 10° NNW 05:26:58 43° NE 05:33:02 10° ESE
Cosmos 1666 4.3 05:24:32 10° N 05:28:09 35° ENE 05:31:44 10° SE
Cosmos 1536 Rocket 3.4 05:30:12 53° SSW 05:31:11 76° W 05:35:41 10° N
Cosmos 2208 Rocket 4.1 05:29:24 31° SSW 05:32:06 84° ESE 05:37:35 10° NNE
CENTAUR R/B 4.0 05:30:50 19° WNW 05:33:35 24° NNW 05:39:19 10° NNE
USA 215 3.1 05:28:37 10° SE 05:35:11 80° SW 05:41:47 10° NW
Cosmos 1743 2.8 05:31:50 10° N 05:35:42 74° E 05:39:32 10° SSE
PAYLOAD B 4.3 05:32:12 10° NNE 05:37:51 83° ESE 05:42:35 15° SSW
MTI 3.7 05:40:00 36° SSE 05:41:14 89° E 05:44:33 10° NNW
Cosmos 2333 Rocket 3.2 05:36:27 10° S 05:41:49 44° ESE 05:47:15 10° NE
Cosmos 1867 4.4 05:37:06 10° NNW 05:42:27 52° NE 05:47:44 10° SE
PSLV R/B 3.6 05:38:22 10° NNE 05:42:44 78° ESE 05:45:55 18° S
CZ-4B R/B 2.5 05:39:52 10° N 05:43:28 72° WNW 05:44:12 53° SW
Cosmos 2154 Rocket 3.9 05:37:23 10° N 05:43:36 79° W 05:49:47 10° S
USA 229 DEB 4.2 05:38:14 15° SSW 05:43:56 58° ESE 05:50:44 10° NE
USA 229 4.2 05:38:19 14° SSW 05:44:03 57° ESE 05:50:49 10° NE
Cosmos 2322 4.2 05:46:43 32° WSW 05:48:38 42° WNW 05:54:05 10° NNE
Okean 1-7 Rocket 4.1 05:47:20 10° S 05:51:47 60° E 05:56:13 10° NNE
EO 1 Del DPAF 3.2 05:48:51 10° S 05:52:40 60° WSW 05:56:30 10° NNW
ARIANE 5 R/B 4.4 05:52:19 10° NNW 05:54:43 13° WNW 05:54:43 13° WNW
Meteor PRIRODA 4.1 05:55:42 10° NNE 05:59:27 64° E 06:03:11 10° S
Thor Agena Rocket 4.5 05:56:40 10° SE 06:01:31 49° ENE 06:06:22 10° N
Cosmos 2150 Rocket 4.5 05:57:25 10° NNW 06:02:42 65° ENE 06:08:01 10° SSE
SL-8 Rocket 4.3 05:57:09 10° N 06:03:23 69° E 06:09:31 10° SSE
Nadezhda 1 Rocket 4.4 06:01:18 21° SW 06:04:49 40° WNW 06:10:31 10° N
Cosmos 2181 Rocket 4.0 05:59:55 10° S 06:06:08 89° WNW 06:12:29 10° N
Tiangong 2 2.0 06:06:42 29° SSW 06:06:51 30° SSW 06:09:38 10° SE
Cosmos 1844 3.6 06:01:23 10° NNW 06:07:10 73° WSW 06:12:49 10° SSE
Cosmos 1570 Rocket 4.4 06:04:43 24° WSW 06:07:31 44° WNW 06:12:33 10° N
Cosmos 2333 4.3 06:03:49 20° SW 06:07:48 62° WNW 06:13:28 10° NNE
Cosmos 1898 Rocket 3.4 06:03:21 10° NNW 06:08:36 88° WSW 06:13:46 10° SSE
Cosmos 468 Rocket 4.1 06:03:27 10° SSW 06:08:36 76° ESE 06:13:51 10° NNE
MOS 1 Rocket 4.4 06:07:38 10° NNW 06:11:29 25° WNW 06:12:54 22° W
Meteor 1-13 Rocket 4.2 06:06:08 10° SSW 06:11:34 58° WNW 06:17:08 10° N
CZ-4B DEB 4.4 06:08:35 10° N 06:14:00 55° WNW 06:19:24 10° SSW
CZ-4B R/B 3.4 06:08:57 10° N 06:14:27 55° WNW 06:19:51 10° SW
SL-16 R/B 4.3 06:12:22 10° SSE 06:17:03 27° ESE 06:21:45 10° NE
ERS-2 2.1 06:14:30 10° NNE 06:18:14 89° SE 06:21:55 10° SSW
Cosmos 1238 Rocket 3.1 06:21:10 24° W 06:21:46 26° WNW 06:24:21 10° NNW
Cosmos 2341 Rocket 4.1 06:18:20 10° NNW 06:24:22 51° W 06:30:19 10° SSW
Cosmos 2322 Rocket 4.3 06:24:47 10° NW 06:25:11 10° NW 06:25:35 10° NNW
Cosmos 1980 3.8 06:21:38 10° SSW 06:27:17 83° ESE 06:32:58 10° NNE
Okean O Rocket 2.7 06:25:02 10° N 06:28:42 26° WNW 06:31:30 14° WSW
CZ-2C R/B 4.4 06:26:21 10° SSW 06:30:24 31° W 06:34:26 10° NW
Cosmos 2218 Rocket 4.1 06:24:09 10° N 06:30:34 88° W 06:36:54 10° S
Cosmos 858 Rocket 4.5 06:25:30 10° NNW 06:30:45 65° WSW 06:35:56 10° S
SL-8 R/B 3.8 06:27:02 10° WNW 06:31:50 82° NNE 06:36:37 10° ESE
COSMO-SKYMED 1 3.3 06:29:15 10° SSE 06:33:30 59° ENE 06:37:47 10° N
Cosmos 1025 Rocket 3.1 06:31:37 10° SSW 06:35:55 57° W 06:40:16 10° N
Cosmos 1763 Rocket 3.8 06:30:58 10° S 06:36:00 70° ESE 06:41:07 10° NNE
Cosmos 2219 Rocket 2.3 06:30:46 10° SW 06:36:14 55° WNW 06:41:44 10° NNE
Cosmos 1726 Rocket 3.6 06:31:50 10° N 06:36:18 87° E 06:40:45 10° S
Cosmos 1437 2.7 06:33:35 10° SSW 06:36:51 78° W 06:40:09 10° N
GENESIS II 4.3 06:33:07 10° SSW 06:37:12 88° ESE 06:41:18 10° NE
Cosmos 1937 Rocket 3.5 06:32:26 10° NNW 06:37:44 69° WSW 06:42:59 10° S
COSMOS 2428 3.5 06:33:59 13° WSW 06:38:29 33° NW 06:43:36 10° N
Meteor 2-9 Rocket 4.3 06:34:24 10° NNW 06:39:54 52° W 06:45:13 10° SSW
Cosmos 1844 Rocket 3.5 06:37:28 10° NW 06:42:09 28° WSW 06:46:49 10° SSW
SJ-6F 4.3 06:38:32 10° N 06:42:37 80° WNW 06:46:41 10° SSW
Okean-O 2.7 06:38:23 10° N 06:42:47 62° WNW 06:47:09 10° SSW
Meteor 1-28 Rocket 4.0 06:40:37 10° SSE 06:44:21 58° ENE 06:48:07 10° N
Meteor 1-23 Rocket 4.3 06:38:52 10° SSW 06:44:36 61° WNW 06:50:19 10° N
Radarsat Rocket 4.4 06:38:52 10° NNE 06:44:49 66° ESE 06:50:35 10° S
NOSS 0 Rocket 3.9 06:39:43 10° SW 06:45:52 70° WNW 06:52:02 10° NNE
Cosmos 1892 Rocket 3.5 06:42:31 10° S 06:46:51 86° W 06:51:16 10° N
DELTA 2 R/B (1) 3.8 06:43:29 11° W 06:48:46 60° S 06:54:13 10° ESE
Cosmos 841 Rocket 3.7 06:44:50 10° SSW 06:49:58 76° ESE 06:55:07 10° NNE
NOAA 6 4.0 06:46:07 10° NNE 06:51:16 85° WNW 06:56:23 10° SSW
ADEOS II 3.3 06:49:48 10° NNW 06:53:55 24° WNW 06:58:01 10° WSW
Cosmos 2360 Rocket 4.1 06:52:31 10° WNW 06:55:21 14° NW 06:58:11 10° NNW
Cosmos 2278 Rocket 2.4 06:52:41 10° NW 06:58:10 50° WSW 07:03:35 10° S
Cosmos 1441 Rocket 3.3 06:54:15 10° S 06:58:12 88° W 07:02:14 10° N
Cosmos 2285 Rocket 4.3 06:52:40 10° SW 06:58:52 49° WNW 07:05:08 10° N
Aureole 2 Rocket 2.9 06:55:58 10° SW 06:59:23 39° WNW 07:02:32 10° N
CZ-4C R/B 3.8 06:53:47 10° NNW 07:00:37 52° NE 07:08:12 10° ESE
Cosmos 1814 Rocket 4.2 06:55:53 10° SW 07:00:57 51° WNW 07:05:59 10° N
